Regional Weather Roundup
Issued by NWS Little Rock, AR

Home | Current Version | Previous Version | Text Only | Print | Product List | Glossary Off
Versions: 1 2 3 4 5 6 7 8 9 10 11 12 13 14 15 16 17 18 19 20 21 22 23 24 25 26 27 28 29 30 31 32 33

000
ASUS44 KLZK 251212
RWRLZK

WEATHER ROUNDUP FOR ARKANSAS
NATIONAL WEATHER SERVICE LITTLE ROCK AR
700 AM CDT THU MAY 25 2017

NOTE: "FAIR" INDICATES FEW OR NO CLOUDS BELOW 12,000 FEET WITH NO
SIGNIFICANT WEATHER AND/OR OBSTRUCTIONS TO VISIBILITY.

ARZ001-003-010-029-251300-
NORTHWEST ARKANSAS

CITY           SKY/WX    TMP DP  RH WIND       PRES   REMARKS
FAYETTEVILLE   CLEAR     44  44 100 S3        29.77R
6HR MIN TEMP:  42; 6HR MAX TEMP:  47;

FORT SMITH     CLEAR     52  49  89 CALM      29.77R
6HR MIN TEMP:  49; 6HR MAX TEMP:  57;

HARRISON       SUNNY     47  47 100 S3        29.77R
6HR MIN TEMP:  45; 6HR MAX TEMP:  50;

BENTONVILLE    CLEAR     48  45  87 CALM      29.77R
6HR MIN TEMP:  45; 6HR MAX TEMP:  52;

ROGERS         CLEAR     49  47  93 CALM      29.77R
6HR MIN TEMP:  46; 6HR MAX TEMP:  52; 6HR PCP:  0.03;

SILOAM SPGS    CLEAR     45  39  81 E3        29.75S
6HR MIN TEMP:  43; 6HR MAX TEMP:  48;

HIGHFILL       CLEAR     48  46  93 CALM      29.76R
6HR MIN TEMP:  44; 6HR MAX TEMP:  50;

SPRINGDALE     CLEAR     46  46 100 CALM      29.78R
$$

ARZ004-005-016-251300-
NORTH CENTRAL ARKANSAS

CITY           SKY/WX    TMP DP  RH WIND       PRES   REMARKS
BATESVILLE     SUNNY     52  48  87 CALM      29.76R
6HR MIN TEMP:  48; 6HR MAX TEMP:  54;

FLIPPIN        SUNNY     46  43  87 SW3       29.74R
6HR MIN TEMP:  45; 6HR MAX TEMP:  50;

MTN HOME       SUNNY     49  49 100 CALM      29.75R
6HR MIN TEMP:  45; 6HR MAX TEMP:  51;

$$

ARZ040-041-251300-
WEST CENTRAL ARKANSAS

CITY           SKY/WX    TMP DP  RH WIND       PRES   REMARKS
MENA           CLEAR     48  46  93 CALM      29.81R
MOUNT IDA      CLEAR     46  44  93 CALM      29.78R
6HR MIN TEMP:  45; 6HR MAX TEMP:  50;

$$

ARZ009-017-025-026-028-251300-
NORTHEAST ARKANSAS

CITY           SKY/WX    TMP DP  RH WIND       PRES   REMARKS
CORNING        FAIR      54  54 100 W7        29.74R
JONESBORO      SUNNY     54  51  90 NW6       29.74R
6HR MIN TEMP:  52; 6HR MAX TEMP:  55;

WALNUT RIDGE   SUNNY     54  46  76 W5        29.75R
6HR MIN TEMP:  52; 6HR MAX TEMP:  54;

BLYTHEVILLE    SUNNY     55  52  89 W7        29.73R
6HR MIN TEMP:  53; 6HR MAX TEMP:  56;

$$

ARZ022-023-033-042-044-251300-
CENTRAL ARKANSAS

CITY           SKY/WX    TMP DP  RH WIND       PRES   REMARKS
LITTLE ROCK    MOSUNNY   52  51  97 SW3       29.78R
6HR MIN TEMP:  50; 6HR MAX TEMP:  53;

N LITTLE ROCK    N/A     55  51  86 W3        29.79R
6HR MIN TEMP:  53; 6HR MAX TEMP:  55;

JACKSONVILLE   SUNNY     53  52  98 CALM      29.79R
6HR MIN TEMP:  49; 6HR MAX TEMP:  54;

CONWAY           N/A     54  52  94 W5        29.78R
SEARCY         SUNNY     52  52 100 CALM      29.79R
6HR MIN TEMP:  48; 6HR MAX TEMP:  54;

HOT SPRINGS    CLEAR     51  49  92 CALM      29.80R
6HR MIN TEMP:  47; 6HR MAX TEMP:  54;

RUSSELLVILLE   SUNNY     50  49  96 CALM      29.78R
6HR MIN TEMP:  47; 6HR MAX TEMP:  51;

$$

ARZ036-251300-
EAST ARKANSAS

CITY           SKY/WX    TMP DP  RH WIND       PRES   REMARKS
WEST MEMPHIS   SUNNY     54  53  97 VRB3      29.74R
6HR MIN TEMP:  50; 6HR MAX TEMP:  56;

$$

ARZ050-053-066-070-073-251300-
SOUTHWEST ARKANSAS

CITY           SKY/WX    TMP DP  RH WIND       PRES   REMARKS
ARKADELPHIA    FAIR      50  49  96 SW5       29.82R
6HR MIN TEMP:  48; 6HR MAX TEMP:  53;

CAMDEN         CLEAR     52  50  93 CALM      29.82R
TEXARKANA      CLEAR     54  51  90 S7        29.81R
6HR MIN TEMP:  50; 6HR MAX TEMP:  55;

EL DORADO      CLEAR     50  50 100 CALM      29.83R
6HR MIN TEMP:  47; 6HR MAX TEMP:  52;

DE QUEEN       PTCLDY    48  48 100 CALM      29.80R
6HR MIN TEMP:  47; 6HR MAX TEMP:  50;

$$

ARZ056-057-069-251300-
SOUTHEAST ARKANSAS

CITY           SKY/WX    TMP DP  RH WIND       PRES   REMARKS
PINE BLUFF     SUNNY     52  49  89 CALM      29.80R
6HR MIN TEMP:  50; 6HR MAX TEMP:  55;

STUTTGART      SUNNY     57  45  62 SW5       29.79R
6HR MIN TEMP:  54; 6HR MAX TEMP:  57;

MONTICELLO     SUNNY     53  51  93 CALM      29.80R
6HR MIN TEMP:  51; 6HR MAX TEMP:  54;


$$






USA.gov is the U.S. government's official web portal to all federal, state and local government web resources and services.